GOES 18

Last updated on Mon Oct 14 2024 00:02:17 GMT+0000 (Coordinated Universal Time)

1 51850U 22021A 24287.19077233 .00000096 00000+0 00000+0 0 9994 2 51850 0.0157 98.0058 0000492 163.4515 52.4637 1.00270795 9663
UTC large
Height (km)
Speed (km/s)
/
Latitude / Longitude
Inclination (degrees)
Orbital Period (minutes)
Azimuth
Elevation
Range (km)
Doppler Factor

Next 0 passes for location: London (51.5072 / 0.1276)

Sorry there are no passes over London.